| time (UTC) | temp F | wind direction | speed knots | gust knots | rain 1hr in | rain 24hr in | rain mn in | humidity % | barometer mb |
| 20260503200016 | 67 | 338 | 8.7 | 20.0 | 0.00 | 0.00 | 0.00 | 8 | 1001.5 |
| 20260503195016 | 66 | 45 | 5.2 | 14.8 | 0.00 | 0.00 | 0.00 | 7 | 1001.5 |
| 20260503194016 | 66 | 338 | 7.0 | 14.8 | 0.00 | 0.00 | 0.00 | 6 | 1001.7 |
| 20260503193016 | 66 | 338 | 4.3 | 11.3 | 0.00 | 0.00 | 0.00 | 10 | 1001.8 |
| 20260503192016 | 66 | 338 | 7.0 | 18.2 | 0.00 | 0.00 | 0.00 | 10 | 1001.8 |
| 20260503191016 | 67 | 23 | 6.1 | 13.9 | 0.00 | 0.00 | 0.00 | 7 | 1002.0 |
| 20260503190016 | 68 | 315 | 4.3 | 13.0 | 0.00 | 0.00 | 0.00 | 11 | 1002.0 |
| 20260503185016 | 68 | 203 | 3.5 | 18.2 | 0.00 | 0.00 | 0.00 | 11 | 1002.0 |
| 20260503184016 | 67 | 225 | 4.3 | 10.4 | 0.00 | 0.00 | 0.00 | 14 | 1002.1 |
| 20260503183016 | 67 | 338 | 6.1 | 16.5 | 0.00 | 0.00 | 0.00 | 11 | 1002.1 |
| 20260503182016 | 66 | 68 | 2.6 | 7.8 | 0.00 | 0.00 | 0.00 | 14 | 1002.2 |
| 20260503181016 | 66 | 90 | 2.6 | 10.4 | 0.00 | 0.00 | 0.00 | 13 | 1002.3 |
| 20260503180016 | 65 | 23 | 6.1 | 14.8 | 0.00 | 0.00 | 0.00 | 13 | 1002.5 |
| 20260503175036 | 66 | 45 | 5.2 | 13.9 | 0.00 | 0.00 | 0.00 | 14 | 1002.6 |
| 20260503174015 | 66 | 315 | 6.1 | 13.0 | 0.00 | 0.00 | 0.00 | 12 | 1002.6 |
| 20260503173016 | 66 | 23 | 7.0 | 17.4 | 0.00 | 0.00 | 0.00 | 14 | 1002.5 |
| 20260503172016 | 66 | 338 | 2.6 | 8.7 | 0.00 | 0.00 | 0.00 | 15 | 1002.6 |
| 20260503171016 | 66 | 225 | 4.3 | 13.9 | 0.00 | 0.00 | 0.00 | 15 | 1002.7 |
| 20260503131017 | 42 | 225 | 4.3 | 7.8 | 0.00 | 0.00 | 0.00 | 48 | 1003.4 |
| 20260503081016 | 39 | 0.0 | 0.0 | 0.00 | 0.00 | 0.00 | 59 | 1005.1 | |
| 20260503072036 | 39 | 0.0 | 0.9 | 0.00 | 0.00 | 0.00 | 61 | 1005.7 | |
| 20260503071017 | 40 | 158 | 0.9 | 3.5 | 0.00 | 0.00 | 0.00 | 60 | 1005.8 |
| 20260503055016 | 40 | 0.0 | 0.0 | 0.00 | 0.00 | 0.00 | 63 | 1006.3 | |
| 20260503054016 | 40 | 0.0 | 0.0 | 0.00 | 0.00 | 0.00 | 64 | 1006.4 | |
| 20260503053016 | 40 | 0.0 | 0.0 | 0.00 | 0.00 | 0.00 | 64 | 1006.4 | |
| 20260503052016 | 40 | 0.0 | 0.0 | 0.00 | 0.00 | 0.00 | 64 | 1006.4 | |
| 20260503051016 | 41 | 0.0 | 0.0 | 0.00 | 0.00 | 0.00 | 62 | 1006.5 | |
| 20260503050016 | 41 | 0.0 | 1.7 | 0.00 | 0.00 | 0.00 | 59 | 1006.6 | |
| 20260503045016 | 41 | 113 | 0.9 | 1.7 | 0.00 | 0.00 | 0.00 | 59 | 1006.7 |
| 20260503044016 | 41 | 113 | 0.9 | 1.7 | 0.00 | 0.00 | 0.00 | 58 | 1006.9 |
| 20260503043016 | 41 | 113 | 0.9 | 1.7 | 0.00 | 0.00 | 0.00 | 58 | 1006.9 |
| 20260503042016 | 40 | 0.0 | 0.0 | 0.00 | 0.00 | 0.00 | 60 | 1007.0 | |
| 20260503041016 | 40 | 0.0 | 0.0 | 0.00 | 0.00 | 0.00 | 60 | 1007.1 | |
| 20260503040016 | 41 | 0.0 | 0.0 | 0.00 | 0.00 | 0.00 | 58 | 1007.0 | |
| 20260503035016 | 41 | 0.0 | 0.9 | 0.00 | 0.00 | 0.00 | 57 | 1007.0 | |
| 20260503034036 | 41 | 0.0 | 0.0 | 0.00 | 0.00 | 0.00 | 56 | 1007.2 | |
| 20260503033016 | 41 | 113 | 0.9 | 1.7 | 0.00 | 0.00 | 0.00 | 56 | 1007.4 |
| 20260503032016 | 41 | 0.0 | 0.0 | 0.00 | 0.00 | 0.00 | 54 | 1007.7 | |
| 20260503031016 | 41 | 0.0 | 0.0 | 0.00 | 0.00 | 0.00 | 52 | 1007.6 | |
| 20260503030016 | 41 | 0.0 | 1.7 | 0.00 | 0.00 | 0.00 | 54 | 1007.8 | |
| 20260503025036 | 42 | 0.0 | 0.0 | 0.00 | 0.00 | 0.00 | 55 | 1007.8 | |
| 20260503024036 | 42 | 0.0 | 0.0 | 0.00 | 0.00 | 0.00 | 53 | 1008.0 | |
| 20260503023016 | 42 | 0.0 | 0.0 | 0.00 | 0.00 | 0.00 | 47 | 1008.0 | |
| 20260503022016 | 42 | 0.0 | 1.7 | 0.00 | 0.00 | 0.00 | 47 | 1008.2 | |
| 20260503021016 | 42 | 113 | 0.9 | 2.6 | 0.00 | 0.00 | 0.00 | 47 | 1008.0 |
| 20260503020056 | 42 | 0.0 | 1.7 | 0.00 | 0.00 | 0.00 | 48 | 1008.0 | |
| 20260503015016 | 42 | 0.0 | 2.6 | 0.00 | 0.00 | 0.00 | 49 | 1008.1 | |
| 20260503014016 | 42 | 0.0 | 1.7 | 0.00 | 0.00 | 0.00 | 51 | 1008.3 | |
| 20260503013016 | 43 | 0.0 | 1.7 | 0.00 | 0.00 | 0.00 | 46 | 1008.4 | |
| 20260503012016 | 43 | 113 | 0.9 | 1.7 | 0.00 | 0.00 | 0.00 | 43 | 1008.2 |
| 20260503011016 | 43 | 90 | 0.9 | 3.5 | 0.00 | 0.00 | 0.00 | 44 | 1008.1 |
| 20260503010016 | 43 | 113 | 0.9 | 2.6 | 0.00 | 0.00 | 0.00 | 44 | 1008.3 |
| 20260503005016 | 43 | 90 | 1.7 | 4.3 | 0.00 | 0.00 | 0.00 | 44 | 1008.4 |
| 20260503004036 | 43 | 113 | 1.7 | 5.2 | 0.00 | 0.00 | 0.00 | 43 | 1008.5 |
| 20260503003036 | 44 | 90 | 0.9 | 2.6 | 0.00 | 0.00 | 0.00 | 45 | 1008.6 |
| 20260503002016 | 43 | 90 | 1.7 | 5.2 | 0.00 | 0.00 | 0.00 | 43 | 1008.6 |
| 20260503001016 | 43 | 135 | 1.7 | 3.5 | 0.00 | 0.00 | 0.00 | 46 | 1008.8 |
| 20260503000016 | 43 | 135 | 1.7 | 6.1 | 0.00 | 0.00 | 0.00 | 47 | 1008.8 |
| 20260502235015 | 43 | 135 | 1.7 | 3.5 | 0.00 | 0.00 | 0.00 | 46 | 1008.9 |
| 20260502234036 | 43 | 68 | 2.6 | 5.2 | 0.00 | 0.00 | 0.00 | 49 | 1008.9 |
| 20260502233015 | 43 | 113 | 1.7 | 3.5 | 0.00 | 0.00 | 0.00 | 50 | 1009.1 |
| 20260502232015 | 42 | 135 | 0.9 | 3.5 | 0.00 | 0.00 | 0.00 | 50 | 1009.2 |
| 20260502231015 | 42 | 113 | 1.7 | 5.2 | 0.00 | 0.00 | 0.00 | 53 | 1009.4 |
| 20260502230016 | 42 | 0.0 | 1.7 | 0.00 | 0.00 | 0.00 | 57 | 1009.3 | |
| 20260502225016 | 43 | 113 | 0.9 | 3.5 | 0.00 | 0.00 | 0.00 | 52 | 1009.4 |
| 20260502224015 | 43 | 113 | 1.7 | 3.5 | 0.00 | 0.00 | 0.00 | 53 | 1009.6 |
| 20260502223036 | 44 | 90 | 1.7 | 2.6 | 0.00 | 0.00 | 0.00 | 50 | 1009.7 |
| 20260502222015 | 44 | 90 | 0.9 | 2.6 | 0.00 | 0.00 | 0.00 | 49 | 1009.8 |
| 20260502221015 | 43 | 113 | 1.7 | 3.5 | 0.00 | 0.00 | 0.00 | 53 | 1009.9 |
| 20260502220015 | 43 | 113 | 2.6 | 6.1 | 0.00 | 0.00 | 0.00 | 53 | 1010.0 |
| 20260502215015 | 43 | 113 | 2.6 | 3.5 | 0.00 | 0.00 | 0.00 | 53 | 1010.1 |
| 20260502214035 | 43 | 135 | 2.6 | 4.3 | 0.00 | 0.00 | 0.00 | 52 | 1010.1 |
| 20260502213058 | 42 | 113 | 1.7 | 3.5 | 0.00 | 0.00 | 0.00 | 54 | 1010.4 |
| 20260502212017 | 42 | 113 | 2.6 | 4.3 | 0.00 | 0.00 | 0.00 | 56 | 1010.6 |
| 20260502211017 | 41 | 135 | 2.6 | 4.3 | 0.00 | 0.00 | 0.00 | 58 | 1010.5 |
| 20260502210017 | 40 | 135 | 3.5 | 7.0 | 0.00 | 0.00 | 0.00 | 60 | 1010.7 |
| 20260502205037 | 40 | 113 | 3.5 | 7.0 | 0.00 | 0.00 | 0.00 | 61 | 1010.8 |
| 20260502204017 | 40 | 113 | 4.3 | 7.0 | 0.00 | 0.00 | 0.00 | 61 | 1011.0 |
| 20260502203017 | 40 | 135 | 3.5 | 7.8 | 0.00 | 0.00 | 0.00 | 62 | 1011.1 |
| 20260502202017 | 39 | 113 | 4.3 | 7.0 | 0.00 | 0.00 | 0.00 | 64 | 1011.4 |
| 20260502201017 | 39 | 113 | 5.2 | 7.8 | 0.00 | 0.00 | 0.00 | 64 | 1011.5 |